Location: Home
(42.5358°N, 72.7383°W)
Time: 14:13:38
(UTC-05:00)

deb Explorer IX - Pass Details

Date: 05 December 2021
Orbit: 544 x 1082 km, 38.8° (Epoch: 16 January)

Event Time Altitude Azimuth Distance (km) Brightness Sun altitude
Rises 14:59:53 0° 265° (W) 2,709 ? 10.6°
Reaches altitude 10° 15:03:38 10° 230° (SW) 1,800 ? 10.1°
Maximum altitude 15:04:54 11° 212° (SSW) 1,723 ? 9.9°
Drops below altitude 10° 15:06:11 10° 194° (SSW) 1,810 ? 9.7°
Sets 15:09:59 0° 159° (SSE) 2,753 ? 9.2°
